COSMOS 826

Satellite information

Favourite Embed

Satellite Type and Status

PAYLOADIN ORBIT

Key statistics

Satellite COSMOS 826 at a glance.

Uptime

18084

Days in orbit

Revolutions

≈ 12.4

Per day

Orbit

LEO

Low Earth Orbit

Inclination

74.0

Latest

Satellite identification and parameters

Extended collection of information and parameters for COSMOS 826.

Object identification

Identified? True

Debris? False

Object name: COSMOS 826

International designator: 1976-054B

Object number (NORAD): 8890

Object ID (CCSDS): 8890

Country: COMMONWEALTH OF INDEPENDENT STATES (CIS)

Current information (Y/N): Y

RCS size: MEDIUM

Orbital parameters

Period: 116.265 minutes

Inclination: 74.0019 deg

SMA: 7890.889 km

Apoapsis: 1544.308 km

Periapsis: 1481.2 km

RAAN: 314.471 deg

Eccentricy: 0.0039988

Argument of periapsis: 339.1563 deg

Mean anomaly: 76.0405 deg

Mean motion: 12.3855095 rev/day

Mean motion (dot): -0.00000023 rev/day2

B* drag term: -0.000057688152 1/REarth

Two-line elements (TLE)

Creation date: Dec. 19, 2025, 2:08 a.m.

Reference frame: TEME

Reference center: EARTH

Epoch: Dec. 18, 2025, 10:15 p.m. UTC

TLE line 0: 0 COSMOS 826

TLE line 1: 1 08890U 76054B 25352.92777493 -.00000023 00000-0 -57688-4 0 9997

TLE line 2: 2 08890 74.0019 314.4710 0039988 339.1563 76.0405 12.38550950238569

Live tracking on map

Real-time ground track for satellite COSMOS 826.

In-orbit conjunctions

There are no conjunctions computed for COSMOS 826, at the moment. Check back to stay up to date, as we update our databases every day.

Go to all conjunctions

Associated space launch

Military communications satellites

COSMOS 826 was lifted into orbit during the mission ‘Kosmos-3M | Strela-1M 113-120’, on board a Kosmos-3M space rocket.

The launch took place on June 15, 1976, 1:19 p.m. from 132/2.

For more information about the launch, click the button.

Launch to space Kosmos-3M | Strela-1M 113-120
Kosmos-3M | Strela-1M 113-120

Agency: N/A

Status: Launch Successful

Launch date: June 15, 1976, 1:19 p.m. UTC

Rocket: Kosmos-3M

Launch pad: 132/2

Location: Plesetsk Cosmodrome, Russian Federation

...

Latest news about this satellite

There are no fresh news available about this satellite. Check back as we update our databases every day.


Newsletter sign-up

Weekly statistics, charts and insights to help you stay on top of the space industry.